TimeEST,TemperatureF,Dew PointF,Humidity,Sea Level PressureIn,VisibilityMPH,Wind Direction,Wind SpeedMPH,Gust SpeedMPH,PrecipitationIn,Events,Conditions,WindDirDegrees,DateUTC
12:54 AM,30.0,18.0,61,30.18,10.0,Calm,Calm,-,N/A,,Clear,0,2014-02-01 05:54:00
1:54 AM,30.9,17.1,57,30.19,10.0,Calm,Calm,-,N/A,,Clear,0,2014-02-01 06:54:00
2:54 AM,30.9,16.0,54,30.18,10.0,Calm,Calm,-,N/A,,Clear,0,2014-02-01 07:54:00
3:54 AM,28.9,17.1,61,30.17,10.0,Calm,Calm,-,N/A,,Clear,0,2014-02-01 08:54:00
4:54 AM,28.9,17.1,61,30.19,10.0,Calm,Calm,-,N/A,,Clear,0,2014-02-01 09:54:00
5:54 AM,30.0,17.1,59,30.21,10.0,Calm,Calm,-,N/A,,Clear,0,2014-02-01 10:54:00
6:54 AM,27.0,17.1,66,30.22,10.0,Calm,Calm,-,N/A,,Partly Cloudy,0,2014-02-01 11:54:00
7:54 AM,28.0,17.1,63,30.23,10.0,Calm,Calm,-,N/A,,Partly Cloudy,0,2014-02-01 12:54:00
8:54 AM,36.0,21.9,57,30.24,10.0,NE,3.5,-,N/A,,Partly Cloudy,40,2014-02-01 13:54:00
9:54 AM,44.1,19.9,38,30.23,10.0,NE,3.5,-,N/A,,Partly Cloudy,50,2014-02-01 14:54:00
10:54 AM,48.9,19.0,31,30.23,10.0,Calm,Calm,-,N/A,,Partly Cloudy,0,2014-02-01 15:54:00
11:54 AM,54.0,19.0,25,30.20,10.0,NE,3.5,-,N/A,,Mostly Cloudy,50,2014-02-01 16:54:00
12:54 PM,55.9,17.1,22,30.16,10.0,SSE,6.9,-,N/A,,Mostly Cloudy,150,2014-02-01 17:54:00
1:54 PM,59.0,18.0,20,30.13,10.0,South,8.1,-,N/A,,Mostly Cloudy,180,2014-02-01 18:54:00
2:54 PM,57.9,16.0,19,30.11,10.0,South,5.8,-,N/A,,Overcast,170,2014-02-01 19:54:00
3:54 PM,57.0,15.1,19,30.11,10.0,South,8.1,-,N/A,,Overcast,170,2014-02-01 20:54:00
4:54 PM,55.9,17.1,22,30.12,10.0,SSE,5.8,-,N/A,,Overcast,160,2014-02-01 21:54:00
5:54 PM,53.1,19.9,27,30.12,10.0,SSE,6.9,-,0.00,,Mostly Cloudy,160,2014-02-01 22:54:00
6:54 PM,51.1,21.0,31,30.11,10.0,South,5.8,-,N/A,,Mostly Cloudy,180,2014-02-01 23:54:00
7:36 PM,51.8,24.8,35,30.10,10.0,South,3.5,-,N/A,,Overcast,190,2014-02-02 00:36:00
7:54 PM,51.1,27.0,39,30.11,10.0,SSW,3.5,-,N/A,,Overcast,200,2014-02-02 00:54:00
8:54 PM,51.1,28.9,43,30.10,10.0,SSW,3.5,-,N/A,,Overcast,200,2014-02-02 01:54:00
9:54 PM,50.0,30.0,46,30.10,10.0,SW,4.6,-,N/A,,Overcast,230,2014-02-02 02:54:00
10:54 PM,48.0,32.0,54,30.09,10.0,SW,5.8,-,N/A,,Mostly Cloudy,220,2014-02-02 03:54:00
11:54 PM,46.9,33.1,59,30.07,10.0,SSW,6.9,-,N/A,,Mostly Cloudy,210,2014-02-02 04:54:00